カタログに戻る

QIANFAN-152

運用中通信PO
NORAD 69111·PAYLOAD·🇨🇳 China

打ち上げ May 17, 2026 から Wenchang Space Launch Site

Loading…

次のパス (今後24時間)

TLE

最新Source: Space-Track

元期: Sep 14, 2026, 22:04 UTC

1 69111U 26108H   26257.92012593  .00000099  00000-0  13524-3 0  9994
2 69111  89.0186  13.0719 0002268  98.6587 261.4821 13.51028019 16566

AllMySatでQIANFAN-152をリアルタイム追跡

Download on the App Store